Phoenix-Mesa Gateway Airport, AZ

1:49 AM MST on May 27, 2017 (GMT -0700)
Phoenix-Mesa Gateway Airport

Weather History for KIWA - March, 2013

Change the Weather History Date:

Thursday, March 7, 2013

  Actual Average Record
Temperature  
Mean Temperature 63 °F -  
Max Temperature 78 °F 71 °F 86 °F (2007)
Min Temperature 48 °F 46 °F 37 °F (2017)
Degree Days  
Heating Degree Days 2    
Growing Degree Days 13 (Base 50)    
Moisture  
Dew Point 32 °F    
Average Humidity 36    
Maximum Humidity 58    
Minimum Humidity 15    
Precipitation  
Precipitation 0.00 in - - ()
Sea Level Pressure  
Sea Level Pressure 29.90 in    
Wind  
Wind Speed 6 mph (SE)    
Max Wind Speed 17 mph    
Max Gust Speed -    
Visibility 11 miles    
Events      
Averages and records for this station are not official NWS values.
T = Trace of Precipitation, MM = Missing Value Source: NWS Daily Summary

Daily Weather History Graph

Daily Weather History Graph

Search for Another Location

Airport or City:

Trip Planner

Search our weather history database for the weather conditions in past years. The results will help you decide how hot, cold, wet, or windy it might be!

Date:

Astronomy

Mar. 07, 2013 Rise Set
Actual Time 6:46 AM MST 6:28 PM MST
Civil Twilight 6:22 AM MST 6:53 PM MST
Nautical Twilight 5:53 AM MST 7:22 PM MST
Astronomical Twilight 5:24 AM MST 7:50 PM MST
Moon 3:38 AM MST (3/7) 2:30 PM MST (3/7)
Length of Visible Light 12h 31m
Length of Day
11h 41m
Waning Crescent, 19% of the Moon is Illuminated
Mar 7
Waning Crescent
Mar 11
New
Mar 19
First Quarter
Mar 27
Full
Apr 2
Last Quarter

Hourly Weather History & Observations

Time (MST) Temp. Dew Point Humidity Pressure Visibility Wind Dir Wind Speed Gust Speed Precip Events Conditions
12:15 AM 51.8 °F 32.0 °F 47% 29.92 in 10.0 mi SE 4.6 mph - N/A   Clear
12:35 AM 51.8 °F 33.8 °F 50% 29.92 in 10.0 mi ESE 5.8 mph - N/A   Clear
12:55 AM 51.8 °F 32.0 °F 47% 29.91 in 10.0 mi ESE 6.9 mph - N/A   Clear
1:15 AM 51.8 °F 32.0 °F 47% 29.91 in 10.0 mi ESE 6.9 mph - N/A   Clear
1:35 AM 51.8 °F 32.0 °F 47% 29.91 in 10.0 mi ESE 4.6 mph - N/A   Clear
1:55 AM 51.8 °F 32.0 °F 47% 29.92 in 10.0 mi East 4.6 mph - N/A   Clear
2:15 AM 51.8 °F 32.0 °F 47% 29.92 in 10.0 mi Calm Calm - N/A   Clear
2:35 AM 51.8 °F 32.0 °F 47% 29.91 in 10.0 mi ESE 8.1 mph - N/A   Clear
2:55 AM 50.0 °F 32.0 °F 50% 29.90 in 10.0 mi East 8.1 mph - N/A   Clear
3:15 AM 51.8 °F 32.0 °F 47% 29.90 in 10.0 mi East 8.1 mph - N/A   Clear
3:35 AM 51.8 °F 32.0 °F 47% 29.90 in 10.0 mi East 6.9 mph - N/A   Clear
3:55 AM 51.8 °F 32.0 °F 47% 29.90 in 10.0 mi ESE 8.1 mph - N/A   Clear
4:15 AM 51.8 °F 32.0 °F 47% 29.89 in 10.0 mi ESE 9.2 mph - N/A   Clear
4:35 AM 51.8 °F 33.8 °F 50% 29.90 in 10.0 mi ESE 6.9 mph - N/A   Clear
4:55 AM 51.8 °F 33.8 °F 50% 29.90 in 10.0 mi ESE 8.1 mph - N/A   Clear
5:15 AM 51.8 °F 33.8 °F 50% 29.92 in 10.0 mi ESE 6.9 mph - N/A   Clear
5:47 AM 51.8 °F 33.8 °F 50% 29.93 in 20.0 mi ESE 6.9 mph - N/A   Clear
6:48 AM 48.2 °F 33.8 °F 58% 29.94 in 45.0 mi ESE 5.8 mph - N/A   Partly Cloudy
7:47 AM 53.6 °F 35.6 °F 51% 29.96 in 45.0 mi ESE 9.2 mph - N/A   Clear
8:47 AM 60.8 °F 35.6 °F 39% 29.98 in 45.0 mi SE 9.2 mph - N/A   Clear
9:47 AM 64.4 °F 35.6 °F 34% 29.98 in 45.0 mi SSE 8.1 mph - N/A   Clear
10:47 AM 68.0 °F 30.2 °F 24% 29.98 in 45.0 mi SE 6.9 mph - N/A   Clear
11:47 AM 71.6 °F 30.2 °F 22% 29.97 in 45.0 mi SSE 4.6 mph - N/A   Clear
12:47 PM 73.4 °F 32.0 °F 22% 29.95 in 10.0 mi West 8.1 mph - N/A   Clear
1:47 PM 75.2 °F 28.4 °F 18% 29.92 in 45.0 mi WSW 5.8 mph - N/A   Clear
2:47 PM 75.2 °F 28.4 °F 18% 29.90 in 30.0 mi West 6.9 mph - N/A   Clear
3:47 PM 75.2 °F 26.6 °F 17% 29.89 in 30.0 mi Variable 3.5 mph - N/A   Clear
4:47 PM 78.8 °F 26.6 °F 15% 29.87 in 30.0 mi Variable 4.6 mph - N/A   Partly Cloudy
5:47 PM 75.2 °F 26.6 °F 17% 29.87 in 30.0 mi Calm Calm - N/A   Scattered Clouds
6:47 PM 73.4 °F 28.4 °F 19% 29.87 in 20.0 mi Calm Calm - N/A   Scattered Clouds
7:47 PM 68.0 °F 30.2 °F 24% 29.87 in 20.0 mi SE 5.8 mph - N/A   Scattered Clouds
7:55 PM 66.2 °F 30.2 °F 26% 29.87 in 10.0 mi SE 5.8 mph - N/A   Clear
8:15 PM 64.4 °F 32.0 °F 30% 29.87 in 10.0 mi SW 4.6 mph - N/A   Clear
8:35 PM 64.4 °F 32.0 °F 30% 29.87 in 10.0 mi South 3.5 mph - N/A   Clear
8:47 PM 64.4 °F 30.2 °F 28% 29.87 in 20.0 mi Calm Calm - N/A   Scattered Clouds
8:55 PM 64.4 °F 30.2 °F 28% 29.87 in 10.0 mi Calm Calm - N/A   Clear
9:15 PM 64.4 °F 30.2 °F 28% 29.87 in 10.0 mi WSW 3.5 mph - N/A   Clear
9:35 PM 64.4 °F 32.0 °F 30% 29.88 in 10.0 mi West 4.6 mph - N/A   Clear
9:55 PM 64.4 °F 32.0 °F 30% 29.88 in 10.0 mi West 4.6 mph - N/A   Clear
10:15 PM 64.4 °F 32.0 °F 30% 29.88 in 10.0 mi WSW 3.5 mph - N/A   Clear
10:35 PM 64.4 °F 32.0 °F 30% 29.88 in 10.0 mi Calm Calm - N/A   Clear
10:55 PM 66.2 °F 30.2 °F 26% 29.89 in 10.0 mi South 3.5 mph - N/A   Clear
11:15 PM 62.6 °F 33.8 °F 34% 29.89 in 10.0 mi SE 4.6 mph - N/A   Clear
11:35 PM 64.4 °F 30.2 °F 28% 29.89 in 10.0 mi SSW 17.3 mph - N/A   Clear
11:55 PM 62.6 °F 33.8 °F 34% 29.88 in 10.0 mi SE 6.9 mph - N/A   Clear